Hourly Data Report for October 27, 2015

All times are specified in Local Standard Time (LST). Add 1 hour to adjust for Daylight Saving Time where and when it is observed.

FREDERICTON
NEW BRUNSWICK

45°52'08.000" N
66°32'14.000" W
20.70 m
8101505
71700
YFC

Download Data

Hourly Data (October 2015)
Hourly Data Report for October 27, 2015
Temp Definition
°C
Dew Point Temp Definition
°C
Rel Hum Definition
%
Wind Dir Definition
10's deg

Wind Spd Definition
km/h
Visibility Definition
km
Stn Press Definition
kPa
Hmdx Definition


Wind Chill Definition


Weather Definition


TIME
00:00 Legend Double Dagger -4.9 -6.0 92 20 9 16.1 102.97   -9 LegendNANA
01:00 Legend Double Dagger -4.3 -5.5 91 17 4 16.1 102.97   -6 LegendNANA
02:00 Legend Double Dagger -5.4 -6.2 94   0 16.1 103.01     LegendNANA
03:00 Legend Double Dagger -5.7 -6.5 94 20 8 16.1 103.02   -9 LegendNANA
04:00 Legend Double Dagger -5.5 -6.5 93 20 8 16.1 103.03   -9 LegendNANA
05:00 Legend Double Dagger -5.8 -6.6 94 20 4 16.1 103.08   -8 LegendNANA
06:00 Legend Double Dagger -6.3 -7.1 94 23 5 16.1 103.08   -9 LegendNANA
07:00 Legend Double Dagger -7.5 -8.3 94 20 11 16.1 103.12   -13 LegendNANA
08:00 Legend Double Dagger -4.5 -5.5 93 20 4 16.1 103.18   -6 LegendNANA
09:00 Legend Double Dagger -1.6 -3.6 86 20 5 16.1 103.22   -3 LegendNANA
10:00 Legend Double Dagger 2.7 -2.4 69 17 11 16.1 103.21     LegendNANA
11:00 Legend Double Dagger 5.2 -5.2 47 26 17 16.1 103.17     LegendNANA
12:00 Legend Double Dagger 6.8 -5.2 42 26 15 16.1 103.09     LegendNANA
13:00 Legend Double Dagger 7.5 -4.7 42 26 13 16.1 103.01     LegendNANA
14:00 Legend Double Dagger 8.4 -5.2 38 27 15 16.1 102.93     LegendNANA
15:00 Legend Double Dagger 8.8 -5.7 35 26 21 16.1 102.88     LegendNANA
16:00 Legend Double Dagger 8.5 -4.6 39 24 22 16.1 102.85     LegendNANA
17:00 Legend Double Dagger 7.0 -4.4 44 24 13 16.1 102.84     LegendNANA
18:00 Legend Double Dagger 3.3 -4.0 59 21 11 16.1 102.86     LegendNANA
19:00 Legend Double Dagger 1.7 -3.6 68 20 9 16.1 102.90     LegendNANA
20:00 Legend Double Dagger -0.3 -3.9 77 20 13 16.1 102.94   -4 LegendNANA
21:00 Legend Double Dagger 0.1 -3.3 78 22 13 16.1 102.98     LegendNANA
22:00 Legend Double Dagger 1.4 -2.9 73 23 15 16.1 103.03     LegendNANA
23:00 Legend Double Dagger 0.8 -3.1 75 14 8 16.1 103.07     LegendNANA

Notes on Data Quality.

Legend

  • E = Estimated
  • M = Missing
  • NA = Not Available
  • ‡ = Partner data that is not subject to review by the National Climate Archives
Date modified: